Location: Narrabri
(30.3170°S, 149.7830°E)
Time: 18:42:22
(UTC+10:00)

N. Korean satellite - Visible Passes

Search period start: 23 May 2017 00:00
Search period end: 02 June 2017 00:00
Orbit: 463 x 516 km, 97.2° (Epoch: 22 May)

Date Brightness Start Highest point End Pass type
(mag) Time Alt. Az. Time Alt. Az. Time Alt. Az.
23 May 8.5 18:09:39 14° ENE 18:09:39 14° ENE 18:10:48 10° NE visible
23 May 9.6 19:44:08 14° WNW 19:44:08 14° WNW 19:44:59 10° NW visible
24 May 7.4 06:09:34 10° NNE 06:13:03 52° ESE 06:16:31 10° S visible
24 May 8.5 19:21:05 27° NW 19:21:05 27° NW 19:22:56 10° NNW visible
25 May 8.9 05:47:26 10° NE 05:50:20 24° ESE 05:53:14 10° SSE visible
25 May 7.6 18:58:02 37° N 18:58:02 37° N 19:00:20 10° N visible
26 May 9.7 05:26:17 10° E 05:27:41 12° ESE 05:29:05 10° SE visible
26 May 7.8 18:34:58 27° NE 18:34:58 27° NE 18:37:12 10° NNE visible
27 May 8.4 18:11:55 15° ENE 18:11:55 15° ENE 18:13:20 10° NE visible
27 May 9.7 19:46:23 14° WNW 19:46:23 14° WNW 19:47:10 10° WNW visible
28 May 7.2 06:11:50 10° NNE 06:15:18 57° ESE 06:18:47 10° S visible
28 May 8.6 19:23:19 26° NW 19:23:19 26° NW 19:25:11 10° NNW visible
29 May 8.8 05:49:35 10° NE 05:52:34 26° ESE 05:55:33 10° SSE visible
29 May 7.6 19:00:15 38° N 19:00:15 38° N 19:02:37 10° N visible
30 May 9.6 05:28:15 10° E 05:29:54 13° ESE 05:31:32 10° SE visible
30 May 7.7 18:37:10 30° NE 18:37:10 30° NE 18:39:33 10° NNE visible
31 May 8.3 18:14:05 17° ENE 18:14:05 17° ENE 18:15:48 10° NE visible
31 May 9.7 19:48:33 13° WNW 19:48:33 13° WNW 19:49:17 10° WNW visible
01 Jun 7.0 06:14:01 10° NNE 06:17:29 63° ESE 06:20:59 10° S visible
01 Jun 8.7 19:25:28 26° NW 19:25:28 26° NW 19:27:22 10° NW visible
